Weather History for Johnstown, PA

Change the Weather History Date:

Wednesday, April 10, 2013

  Actual Average Record
Temperature  
Mean Temperature 65 °F 45 °F  
Max Temperature 75 °F 54 °F 86 °F (1922)
Min Temperature 55 °F 36 °F 16 °F (1985)
Degree Days  
Heating Degree Days 0 20  
Month to date heating degree days 216  
Since 1 July heating degree days 6008  
Cooling Degree Days 0 0  
Month to date cooling degree days 0  
Year to date cooling degree days 0  
Growing Degree Days 15 (Base 50)    
Moisture  
Dew Point 53 °F    
Average Humidity 70    
Maximum Humidity 100    
Minimum Humidity 44    
Precipitation  
Precipitation 0.37 in 0.12 in 0.83 in (1895)
Month to date precipitation 1.33  
Year to date precipitation 9.85  
Sea Level Pressure  
Sea Level Pressure 29.93 in    
Wind  
Wind Speed 13 mph (WNW)    
Max Wind Speed 21 mph    
Max Gust Speed 34 mph    
Visibility 8 miles    
Events Rain , Thunderstorm    
T = Trace of Precipitation, MM = Missing Value Source: NWS Daily Summary

Daily Weather History Graph

Daily Weather History Graph

Search for Another Location

Airport:

Trip Planner

Search our weather history database for the weather conditions in past years. The results will help you decide how hot, cold, wet, or windy it might be!

Date:

Astronomy

Apr. 10, 2013 Rise Set
Actual Time 6:44 AM EDT 7:49 PM EDT
Civil Twilight 6:16 AM EDT 8:17 PM EDT
Nautical Twilight 5:43 AM EDT 8:50 PM EDT
Astronomical Twilight 5:08 AM EDT 9:25 PM EDT
Moon 6:39 AM EDT (4/10) 8:23 PM EDT (4/10)
Length of Visible Light 14h 00m
Length of Day
13h 04m
New Moon, 0% of the Moon is Illuminated
Apr 10
New Moon
Apr 18
First Quarter
Apr 25
Full
May 2
Last Quarter
May 9
New

Hourly Weather History & Observations

Time (EDT) Temp. Dew Point Humidity Pressure Visibility Wind Dir Wind Speed Gust Speed Precip Events Conditions
12:54 AM 66.0 °F 46.9 °F 50% 29.94 in 10.0 mi West 13.8 mph 27.6 mph N/A   Clear
1:54 AM 66.0 °F 46.9 °F 50% 29.93 in 10.0 mi West 15.0 mph 21.9 mph N/A   Clear
2:54 AM 64.9 °F 46.9 °F 52% 29.92 in 10.0 mi West 17.3 mph 23.0 mph N/A   Clear
3:54 AM 64.9 °F 48.0 °F 54% 29.92 in 10.0 mi West 15.0 mph 23.0 mph N/A   Clear
4:54 AM 64.0 °F 50.0 °F 60% 29.93 in 10.0 mi West 15.0 mph 25.3 mph N/A   Clear
5:54 AM 64.0 °F 50.0 °F 60% 29.92 in 10.0 mi West 12.7 mph 20.7 mph N/A   Mostly Cloudy
6:54 AM 63.0 °F 51.1 °F 65% 29.94 in 10.0 mi West 11.5 mph 19.6 mph N/A   Clear
7:54 AM 64.9 °F 52.0 °F 63% 29.95 in 10.0 mi West 13.8 mph - N/A   Clear
8:54 AM 64.0 °F 55.0 °F 73% 29.96 in 10.0 mi WSW 15.0 mph 21.9 mph 0.00 in Rain Light Rain
9:54 AM 68.0 °F 55.0 °F 63% 29.95 in 10.0 mi West 16.1 mph 24.2 mph 0.00 in   Mostly Cloudy
10:54 AM 68.0 °F 54.0 °F 61% 29.95 in 10.0 mi West 11.5 mph 27.6 mph 0.00 in   Mostly Cloudy
11:54 AM 71.1 °F 53.1 °F 53% 29.94 in 10.0 mi WSW 12.7 mph 24.2 mph N/A   Mostly Cloudy
1:54 PM 73.0 °F 54.0 °F 51% 29.90 in 10.0 mi SW 17.3 mph 23.0 mph N/A   Mostly Cloudy
2:54 PM 75.0 °F 53.1 °F 46% 29.88 in 10.0 mi WSW 11.5 mph 20.7 mph N/A   Overcast
3:54 PM 75.0 °F 52.0 °F 44% 29.88 in 10.0 mi West 16.1 mph 23.0 mph N/A   Mostly Cloudy
4:37 PM 73.4 °F 51.8 °F 47% 29.90 in 10.0 mi West 6.9 mph - 0.00 in Rain , Thunderstorm Light Rain
4:54 PM 64.9 °F 57.0 °F 75% 29.85 in 3.0 mi North 6.9 mph 23.0 mph 0.06 in Rain , Thunderstorm Light Thunderstorms and Rain
5:19 PM 66.2 °F 57.2 °F 73% 29.86 in 10.0 mi Calm Calm - 0.01 in   Clear
5:54 PM 68.0 °F 59.0 °F 73% 29.85 in 10.0 mi Calm Calm - 0.01 in   Scattered Clouds
6:54 PM 66.9 °F 60.1 °F 79% 29.83 in 10.0 mi Calm Calm - N/A   Clear
7:54 PM 64.0 °F 57.0 °F 78% 29.88 in 10.0 mi NNW 20.7 mph 34.5 mph 0.00 in   Overcast
8:08 PM 62.6 °F 51.8 °F 68% 29.92 in 10.0 mi NNW 18.4 mph 32.2 mph N/A   Overcast
8:19 PM 60.8 °F 51.8 °F 72% 29.92 in 10.0 mi NNW 17.3 mph 26.5 mph 0.00 in Rain , Thunderstorm Light Thunderstorms and Rain
8:37 PM 60.8 °F 51.8 °F 72% 29.91 in 10.0 mi NNW 13.8 mph - 0.01 in Rain Light Rain
8:54 PM 59.0 °F 53.1 °F 81% 29.88 in 10.0 mi NW 5.8 mph - 0.01 in   Scattered Clouds
9:54 PM 59.0 °F 53.1 °F 81% 29.92 in 10.0 mi NNW 8.1 mph 17.3 mph 0.00 in   Overcast
10:21 PM 59.0 °F 53.6 °F 82% 30.01 in 7.0 mi WNW 20.7 mph 26.5 mph 0.04 in Thunderstorm Overcast
10:26 PM 57.2 °F 53.6 °F 88% 30.01 in 1.8 mi WNW 18.4 mph 31.1 mph 0.16 in Rain , Thunderstorm Heavy Thunderstorms and Rain
10:32 PM 57.2 °F 55.4 °F 94% 30.02 in 1.8 mi WNW 11.5 mph 28.8 mph 0.18 in Rain , Thunderstorm Thunderstorms and Rain
10:34 PM 57.2 °F 55.4 °F 94% 30.01 in 3.0 mi NW 12.7 mph - 0.18 in Rain , Thunderstorm Thunderstorms and Rain
10:42 PM 55.4 °F 55.4 °F 100% 30.01 in 4.0 mi West 8.1 mph 18.4 mph 0.19 in Rain Light Rain
10:54 PM 55.9 °F 54.0 °F 93% 29.98 in 4.0 mi West 8.1 mph - 0.23 in Rain Heavy Rain
11:04 PM 55.4 °F 53.6 °F 94% 29.98 in 4.0 mi NW 8.1 mph - 0.03 in Rain Rain
11:54 PM 55.0 °F 53.1 °F 93% 29.90 in 10.0 mi ESE 3.5 mph - 0.06 in   Scattered Clouds